| time (UTC) | temp C | wind direction | speed KPH | gust KPH | rain 1hr cm | rain 24hr cm | rain mn cm | humidity % | barometer mb |
| 20260504160319 | 8 | 295 | 12.9 | 32.2 | 0.00 | 0.08 | 0.00 | 57 | 1015.9 |
| 20260504150832 | 8 | 300 | 11.3 | 24.1 | 0.00 | 0.08 | 0.00 | 56 | 1015.6 |
| 20260504150341 | 8 | 333 | 11.3 | 33.8 | 0.00 | 0.08 | 0.00 | 56 | 1015.6 |
| 20260504141324 | 7 | 354 | 8.0 | 16.1 | 0.00 | 0.08 | 0.00 | 57 | 1015.6 |
| 20260504140831 | 7 | 326 | 6.4 | 16.1 | 0.00 | 0.08 | 0.00 | 59 | 1015.6 |
| 20260504140320 | 7 | 13 | 4.8 | 16.1 | 0.00 | 0.08 | 0.00 | 60 | 1015.5 |
| 20260504130318 | 7 | 3 | 11.3 | 22.5 | 0.00 | 0.08 | 0.00 | 64 | 1014.0 |
| 20260504110318 | 3 | 294 | 3.2 | 4.8 | 0.00 | 0.08 | 0.00 | 90 | 1011.7 |
| 20260504100322 | 4 | 224 | 1.6 | 1.6 | 0.00 | 0.08 | 0.00 | 88 | 1010.8 |
| 20260504081824 | 5 | 222 | 0.0 | 0.0 | 0.00 | 0.08 | 0.00 | 86 | 1010.9 |
| 20260504081330 | 5 | 222 | 0.0 | 0.0 | 0.00 | 0.08 | 0.00 | 85 | 1010.9 |
| 20260504080821 | 5 | 222 | 0.0 | 0.0 | 0.00 | 0.08 | 0.00 | 84 | 1010.9 |
| 20260504080330 | 5 | 222 | 0.0 | 0.0 | 0.00 | 0.08 | 0.00 | 85 | 1011.0 |
| 20260504070345 | 6 | 212 | 1.6 | 3.2 | 0.00 | 0.08 | 0.00 | 80 | 1011.3 |
| 20260504050326 | 7 | 207 | 3.2 | 3.2 | 0.00 | 0.08 | 0.08 | 62 | 1011.6 |
| 20260504045836 | 7 | 199 | 0.0 | 4.8 | 0.00 | 0.08 | 0.08 | 61 | 1011.6 |
| 20260504045322 | 7 | 198 | 0.0 | 4.8 | 0.00 | 0.08 | 0.08 | 60 | 1011.7 |
| 20260504044831 | 7 | 154 | 1.6 | 3.2 | 0.00 | 0.08 | 0.08 | 60 | 1011.6 |
| 20260504044320 | 8 | 154 | 0.0 | 4.8 | 0.00 | 0.08 | 0.08 | 60 | 1011.7 |
| 20260504043846 | 8 | 153 | 3.2 | 6.4 | 0.00 | 0.08 | 0.08 | 62 | 1011.7 |
| 20260504043317 | 8 | 135 | 6.4 | 9.7 | 0.00 | 0.08 | 0.08 | 65 | 1011.7 |
| 20260504042829 | 8 | 124 | 3.2 | 8.0 | 0.00 | 0.08 | 0.08 | 63 | 1011.7 |
| 20260504042318 | 9 | 117 | 1.6 | 4.8 | 0.00 | 0.08 | 0.08 | 61 | 1011.8 |
| 20260504041831 | 10 | 113 | 3.2 | 4.8 | 0.00 | 0.08 | 0.08 | 54 | 1011.8 |
| 20260504041320 | 11 | 215 | 3.2 | 3.2 | 0.00 | 0.08 | 0.08 | 51 | 1011.8 |
| 20260504040829 | 11 | 217 | 1.6 | 3.2 | 0.00 | 0.08 | 0.08 | 42 | 1011.9 |
| 20260504040317 | 11 | 217 | 3.2 | 3.2 | 0.00 | 0.08 | 0.08 | 42 | 1011.9 |
| 20260504035828 | 11 | 215 | 3.2 | 6.4 | 0.00 | 0.08 | 0.08 | 43 | 1012.0 |
| 20260504035318 | 11 | 149 | 3.2 | 8.0 | 0.00 | 0.08 | 0.08 | 51 | 1012.1 |
| 20260504034827 | 12 | 139 | 3.2 | 8.0 | 0.00 | 0.08 | 0.08 | 52 | 1012.1 |
| 20260504034319 | 13 | 113 | 3.2 | 4.8 | 0.00 | 0.08 | 0.08 | 47 | 1012.1 |
| 20260504033823 | 15 | 132 | 1.6 | 6.4 | 0.00 | 0.08 | 0.08 | 30 | 1012.1 |
| 20260504033333 | 15 | 290 | 3.2 | 6.4 | 0.00 | 0.08 | 0.08 | 28 | 1012.0 |
| 20260504032820 | 15 | 286 | 3.2 | 8.0 | 0.00 | 0.08 | 0.08 | 28 | 1012.0 |
| 20260504032331 | 15 | 297 | 3.2 | 8.0 | 0.00 | 0.08 | 0.08 | 28 | 1011.9 |
| 20260504031819 | 15 | 323 | 3.2 | 8.0 | 0.00 | 0.08 | 0.08 | 29 | 1011.9 |
| 20260504031349 | 15 | 283 | 4.8 | 9.7 | 0.00 | 0.08 | 0.08 | 29 | 1011.9 |
| 20260504030818 | 15 | 278 | 4.8 | 9.7 | 0.00 | 0.08 | 0.08 | 29 | 1011.9 |
| 20260504030330 | 15 | 288 | 3.2 | 6.4 | 0.00 | 0.08 | 0.08 | 29 | 1011.9 |
| 20260504025821 | 15 | 293 | 3.2 | 6.4 | 0.00 | 0.08 | 0.08 | 29 | 1011.9 |
| 20260504025312 | 15 | 290 | 3.2 | 8.0 | 0.00 | 0.08 | 0.08 | 30 | 1011.8 |
| 20260504024842 | 15 | 280 | 3.2 | 8.0 | 0.00 | 0.08 | 0.08 | 30 | 1011.8 |
| 20260504024330 | 16 | 287 | 1.6 | 6.4 | 0.00 | 0.08 | 0.08 | 30 | 1011.8 |
| 20260504023840 | 16 | 283 | 3.2 | 6.4 | 0.00 | 0.08 | 0.08 | 30 | 1011.8 |
| 20260504023327 | 16 | 290 | 3.2 | 6.4 | 0.00 | 0.08 | 0.08 | 31 | 1011.8 |
| 20260504022817 | 16 | 281 | 3.2 | 6.4 | 0.00 | 0.08 | 0.08 | 31 | 1011.6 |
| 20260504022329 | 16 | 291 | 3.2 | 6.4 | 0.00 | 0.08 | 0.08 | 31 | 1011.6 |
| 20260504021819 | 16 | 290 | 1.6 | 8.0 | 0.00 | 0.08 | 0.08 | 30 | 1011.6 |
| 20260504021329 | 16 | 290 | 1.6 | 8.0 | 0.00 | 0.08 | 0.08 | 30 | 1011.6 |
| 20260504020821 | 16 | 288 | 3.2 | 6.4 | 0.00 | 0.08 | 0.08 | 29 | 1011.6 |
| 20260504020326 | 17 | 293 | 1.6 | 6.4 | 0.00 | 0.08 | 0.08 | 29 | 1011.6 |
| 20260504015835 | 17 | 287 | 1.6 | 4.8 | 0.00 | 0.08 | 0.08 | 29 | 1011.5 |
| 20260504015325 | 17 | 273 | 1.6 | 6.4 | 0.00 | 0.08 | 0.08 | 29 | 1011.6 |
| 20260504014815 | 17 | 280 | 1.6 | 4.8 | 0.00 | 0.08 | 0.08 | 29 | 1011.5 |
| 20260504014325 | 17 | 284 | 0.0 | 4.8 | 0.00 | 0.08 | 0.08 | 29 | 1011.5 |
| 20260504013815 | 18 | 284 | 3.2 | 6.4 | 0.00 | 0.08 | 0.08 | 28 | 1011.6 |
| 20260504013321 | 18 | 280 | 1.6 | 8.0 | 0.00 | 0.08 | 0.08 | 28 | 1011.6 |
| 20260504012827 | 18 | 300 | 1.6 | 8.0 | 0.00 | 0.08 | 0.08 | 27 | 1011.8 |
| 20260504012318 | 19 | 250 | 1.6 | 8.0 | 0.00 | 0.08 | 0.08 | 27 | 1011.9 |
| 20260504011830 | 19 | 295 | 4.8 | 16.1 | 0.00 | 0.08 | 0.08 | 26 | 1011.9 |
| 20260504011321 | 19 | 284 | 6.4 | 16.1 | 0.00 | 0.08 | 0.08 | 26 | 1012.0 |
| 20260504010828 | 19 | 271 | 6.4 | 16.1 | 0.00 | 0.08 | 0.08 | 26 | 1012.0 |
| 20260504010319 | 19 | 246 | 6.4 | 11.3 | 0.00 | 0.08 | 0.08 | 25 | 1012.0 |
| 20260504005832 | 19 | 356 | 3.2 | 14.5 | 0.00 | 0.08 | 0.08 | 26 | 1012.1 |
| 20260504005321 | 19 | 299 | 8.0 | 14.5 | 0.00 | 0.08 | 0.08 | 26 | 1012.2 |
| 20260504004831 | 19 | 326 | 6.4 | 14.5 | 0.00 | 0.08 | 0.08 | 25 | 1012.2 |
| 20260504004322 | 19 | 304 | 4.8 | 11.3 | 0.00 | 0.08 | 0.08 | 26 | 1012.3 |
| 20260504003831 | 19 | 287 | 6.4 | 11.3 | 0.00 | 0.08 | 0.08 | 25 | 1012.3 |
| 20260504003320 | 20 | 325 | 8.0 | 14.5 | 0.00 | 0.08 | 0.08 | 25 | 1012.3 |
| 20260504002828 | 20 | 307 | 6.4 | 24.1 | 0.00 | 0.08 | 0.08 | 25 | 1012.3 |
| 20260504002319 | 20 | 280 | 8.0 | 17.7 | 0.00 | 0.08 | 0.08 | 25 | 1012.3 |
| 20260504001823 | 20 | 285 | 4.8 | 17.7 | 0.00 | 0.08 | 0.08 | 26 | 1012.4 |
| 20260504001331 | 20 | 293 | 8.0 | 14.5 | 0.00 | 0.08 | 0.08 | 26 | 1012.4 |
| 20260504000818 | 20 | 232 | 4.8 | 16.1 | 0.00 | 0.08 | 0.08 | 27 | 1012.4 |
| 20260504000346 | 20 | 282 | 4.8 | 16.1 | 0.00 | 0.08 | 0.08 | 27 | 1012.5 |
| 20260503235832 | 20 | 263 | 8.0 | 14.5 | 0.00 | 0.08 | 0.08 | 27 | 1012.6 |
| 20260503235320 | 20 | 281 | 6.4 | 14.5 | 0.00 | 0.08 | 0.08 | 27 | 1012.7 |
| 20260503234811 | 20 | 330 | 6.4 | 17.7 | 0.00 | 0.08 | 0.08 | 26 | 1012.7 |
| 20260503234347 | 20 | 289 | 4.8 | 17.7 | 0.00 | 0.08 | 0.08 | 27 | 1012.7 |
| 20260503233836 | 20 | 289 | 9.7 | 17.7 | 0.00 | 0.08 | 0.08 | 27 | 1012.7 |
| 20260503233326 | 20 | 276 | 8.0 | 17.7 | 0.00 | 0.08 | 0.08 | 29 | 1012.7 |
| 20260503232818 | 19 | 233 | 3.2 | 6.4 | 0.00 | 0.08 | 0.08 | 31 | 1012.8 |
| 20260503232356 | 18 | 165 | 1.6 | 4.8 | 0.00 | 0.08 | 0.08 | 31 | 1012.8 |
| 20260503231826 | 18 | 219 | 1.6 | 3.2 | 0.00 | 0.08 | 0.08 | 30 | 1012.9 |
| 20260503231352 | 18 | 266 | 0.0 | 8.0 | 0.00 | 0.08 | 0.08 | 32 | 1013.0 |
| 20260503230820 | 18 | 274 | 3.2 | 11.3 | 0.00 | 0.08 | 0.08 | 32 | 1013.0 |
| 20260503230329 | 18 | 304 | 6.4 | 12.9 | 0.00 | 0.08 | 0.08 | 32 | 1013.0 |
| 20260503225816 | 18 | 280 | 3.2 | 11.3 | 0.00 | 0.08 | 0.08 | 31 | 1013.0 |
| 20260503225328 | 18 | 259 | 3.2 | 6.4 | 0.00 | 0.08 | 0.08 | 33 | 1013.1 |
| 20260503224819 | 19 | 319 | 3.2 | 9.7 | 0.00 | 0.08 | 0.08 | 33 | 1013.0 |
| 20260503224329 | 19 | 46 | 4.8 | 12.9 | 0.00 | 0.08 | 0.08 | 32 | 1013.0 |
| 20260503223819 | 19 | 293 | 6.4 | 12.9 | 0.00 | 0.08 | 0.08 | 33 | 1013.2 |
| 20260503223323 | 19 | 12 | 4.8 | 9.7 | 0.00 | 0.08 | 0.08 | 34 | 1013.2 |
| 20260503222834 | 19 | 125 | 3.2 | 9.7 | 0.00 | 0.08 | 0.08 | 35 | 1013.3 |
| 20260503222320 | 18 | 114 | 4.8 | 9.7 | 0.00 | 0.08 | 0.08 | 36 | 1013.4 |
| 20260503221855 | 18 | 77 | 4.8 | 9.7 | 0.00 | 0.08 | 0.08 | 37 | 1013.4 |
| 20260503221322 | 18 | 13 | 4.8 | 14.5 | 0.00 | 0.08 | 0.08 | 38 | 1013.5 |
| 20260503220830 | 18 | 100 | 8.0 | 12.9 | 0.00 | 0.08 | 0.08 | 38 | 1013.6 |
| 20260503220320 | 18 | 110 | 4.8 | 12.9 | 0.00 | 0.08 | 0.08 | 40 | 1013.8 |
| 20260503215831 | 18 | 93 | 8.0 | 12.9 | 0.00 | 0.08 | 0.08 | 39 | 1013.9 |
| 20260503215320 | 18 | 91 | 4.8 | 11.3 | 0.00 | 0.08 | 0.08 | 41 | 1013.9 |
| 20260503214831 | 17 | 66 | 8.0 | 11.3 | 0.00 | 0.08 | 0.08 | 42 | 1014.1 |
| 20260503214319 | 17 | 87 | 4.8 | 11.3 | 0.00 | 0.08 | 0.08 | 42 | 1014.1 |
| 20260503213829 | 17 | 39 | 4.8 | 9.7 | 0.00 | 0.08 | 0.08 | 44 | 1014.2 |
| 20260503213319 | 17 | 65 | 6.4 | 11.3 | 0.00 | 0.08 | 0.08 | 43 | 1014.4 |
| 20260503212831 | 17 | 341 | 8.0 | 14.5 | 0.00 | 0.08 | 0.08 | 42 | 1014.5 |
| 20260503212323 | 17 | 47 | 6.4 | 14.5 | 0.00 | 0.08 | 0.08 | 42 | 1014.6 |
| 20260503211827 | 17 | 70 | 8.0 | 12.9 | 0.00 | 0.08 | 0.08 | 43 | 1014.6 |
| 20260503211316 | 16 | 63 | 6.4 | 11.3 | 0.00 | 0.08 | 0.08 | 46 | 1014.8 |
| 20260503210824 | 16 | 333 | 4.8 | 14.5 | 0.00 | 0.08 | 0.08 | 44 | 1014.9 |
| 20260503210316 | 17 | 27 | 9.7 | 14.5 | 0.00 | 0.08 | 0.08 | 43 | 1015.0 |
| 20260503205826 | 18 | 77 | 8.0 | 12.9 | 0.00 | 0.08 | 0.08 | 41 | 1015.0 |
| 20260503205317 | 18 | 86 | 1.6 | 9.7 | 0.00 | 0.08 | 0.08 | 40 | 1015.1 |
| 20260503204821 | 17 | 193 | 6.4 | 9.7 | 0.00 | 0.08 | 0.08 | 41 | 1015.2 |
| 20260503204344 | 17 | 199 | 0.0 | 12.9 | 0.03 | 0.08 | 0.08 | 40 | 1015.2 |
| 20260503203830 | 17 | 230 | 8.0 | 14.5 | 0.03 | 0.08 | 0.08 | 41 | 1015.3 |
| 20260503203318 | 17 | 214 | 6.4 | 17.7 | 0.03 | 0.08 | 0.08 | 40 | 1015.3 |
| 20260503202830 | 17 | 249 | 6.4 | 12.9 | 0.03 | 0.08 | 0.08 | 42 | 1015.3 |
| 20260503202320 | 16 | 225 | 4.8 | 11.3 | 0.03 | 0.08 | 0.08 | 43 | 1015.4 |
| 20260503201830 | 16 | 262 | 6.4 | 16.1 | 0.05 | 0.08 | 0.08 | 45 | 1015.5 |
| 20260503201321 | 16 | 221 | 8.0 | 16.1 | 0.08 | 0.08 | 0.08 | 44 | 1015.5 |
| 20260503200833 | 15 | 214 | 8.0 | 19.3 | 0.08 | 0.08 | 0.08 | 48 | 1015.6 |
| 20260503200328 | 15 | 215 | 8.0 | 14.5 | 0.08 | 0.08 | 0.08 | 51 | 1015.8 |
| 20260503195836 | 13 | 210 | 4.8 | 12.9 | 0.08 | 0.08 | 0.08 | 55 | 1015.9 |
| 20260503195323 | 12 | 155 | 6.4 | 19.3 | 0.08 | 0.08 | 0.08 | 52 | 1016.0 |
| 20260503194828 | 12 | 229 | 16.1 | 19.3 | 0.08 | 0.08 | 0.08 | 52 | 1016.2 |
| 20260503194318 | 12 | 284 | 8.0 | 14.5 | 0.05 | 0.05 | 0.05 | 55 | 1016.2 |
| 20260503193829 | 12 | 256 | 9.7 | 16.1 | 0.05 | 0.05 | 0.05 | 58 | 1016.4 |
| 20260503193318 | 12 | 222 | 6.4 | 17.7 | 0.05 | 0.05 | 0.05 | 59 | 1016.5 |
| 20260503192830 | 13 | 226 | 3.2 | 40.2 | 0.05 | 0.05 | 0.05 | 54 | 1016.5 |